TimeEST,TemperatureF,Dew PointF,Humidity,Sea Level PressureIn,VisibilityMPH,Wind Direction,Wind SpeedMPH,Gust SpeedMPH,PrecipitationIn,Events,Conditions,WindDirDegrees,DateUTC
12:53 AM,64.9,50.0,58,30.02,10.0,SSW,16.1,23.0,N/A,,Overcast,210,2012-12-04 05:53:00
1:53 AM,63.0,50.0,63,30.01,10.0,SSW,10.4,20.7,N/A,,Partly Cloudy,210,2012-12-04 06:53:00
2:53 AM,64.0,51.1,63,30.01,10.0,SSW,12.7,19.6,N/A,,Overcast,200,2012-12-04 07:53:00
3:53 AM,64.0,52.0,65,30.00,10.0,SSW,12.7,-,N/A,,Overcast,200,2012-12-04 08:53:00
4:31 AM,64.4,53.6,68,30.02,10.0,SSW,13.8,-,N/A,,Overcast,210,2012-12-04 09:31:00
4:53 AM,64.0,53.1,67,30.00,10.0,SW,12.7,25.3,N/A,,Overcast,220,2012-12-04 09:53:00
5:53 AM,63.0,54.0,72,30.00,10.0,SSW,16.1,21.9,N/A,,Overcast,210,2012-12-04 10:53:00
6:46 AM,62.6,53.6,72,30.02,10.0,SSW,10.4,20.7,N/A,,Overcast,210,2012-12-04 11:46:00
6:53 AM,63.0,54.0,72,30.00,10.0,SSW,11.5,21.9,N/A,,Overcast,210,2012-12-04 11:53:00
7:53 AM,63.0,54.0,72,30.01,10.0,SSW,10.4,18.4,N/A,,Overcast,210,2012-12-04 12:53:00
8:53 AM,62.1,55.9,80,30.02,6.0,SSW,10.4,-,0.01,Rain,Light Rain,210,2012-12-04 13:53:00
9:53 AM,62.1,55.9,80,30.03,10.0,SSW,10.4,-,0.00,,Overcast,210,2012-12-04 14:53:00
10:53 AM,62.1,55.9,80,30.03,10.0,SW,9.2,-,0.00,,Overcast,230,2012-12-04 15:53:00
11:32 AM,60.8,57.2,88,30.05,3.0,WSW,9.2,-,0.01,Rain,Light Rain,240,2012-12-04 16:32:00
11:42 AM,60.8,57.2,88,30.05,2.0,WSW,8.1,-,0.01,Rain,Light Rain,240,2012-12-04 16:42:00
11:49 AM,60.8,57.2,88,30.05,1.5,SW,8.1,-,0.01,Rain,Light Rain,230,2012-12-04 16:49:00
11:53 AM,59.0,57.9,96,30.04,1.2,WSW,8.1,-,0.01,Rain,Light Rain,240,2012-12-04 16:53:00
12:33 PM,59.0,57.2,94,30.04,1.8,WNW,9.2,-,0.02,Rain,Light Rain,300,2012-12-04 17:33:00
12:53 PM,57.9,57.0,97,30.04,1.2,WNW,6.9,-,0.02,,Overcast,290,2012-12-04 17:53:00
1:19 PM,51.8,51.8,100,30.06,2.5,North,11.5,21.9,0.02,Rain,Light Rain,350,2012-12-04 18:19:00
1:41 PM,51.8,50.0,94,30.06,4.0,NNW,9.2,-,0.05,Rain,Light Rain,340,2012-12-04 18:41:00
1:53 PM,50.0,48.0,93,30.05,8.0,North,12.7,-,0.05,Rain,Light Rain,360,2012-12-04 18:53:00
2:03 PM,50.0,48.2,94,30.05,9.0,North,13.8,-,0.00,Rain,Light Rain,360,2012-12-04 19:03:00
2:53 PM,48.9,46.0,90,30.05,10.0,North,12.7,-,0.00,,Overcast,360,2012-12-04 19:53:00
3:53 PM,48.9,43.0,80,30.09,10.0,North,9.2,-,N/A,,Overcast,360,2012-12-04 20:53:00
4:15 PM,48.2,42.8,82,30.12,10.0,North,6.9,-,N/A,,Overcast,360,2012-12-04 21:15:00
4:53 PM,48.9,42.1,77,30.14,10.0,North,4.6,-,N/A,,Overcast,10,2012-12-04 21:53:00
5:53 PM,48.9,41.0,74,30.16,10.0,Calm,Calm,-,N/A,,Overcast,0,2012-12-04 22:53:00
6:53 PM,48.0,41.0,77,30.18,10.0,Calm,Calm,-,N/A,,Overcast,0,2012-12-04 23:53:00
7:53 PM,42.1,39.0,89,30.20,10.0,Calm,Calm,-,N/A,,Clear,0,2012-12-05 00:53:00
8:53 PM,39.0,37.0,93,30.20,10.0,Calm,Calm,-,N/A,,Clear,0,2012-12-05 01:53:00
9:53 PM,39.9,37.9,93,30.23,10.0,Calm,Calm,-,N/A,,Clear,0,2012-12-05 02:53:00
10:53 PM,41.0,39.0,93,30.23,10.0,Calm,Calm,-,N/A,,Clear,0,2012-12-05 03:53:00
11:53 PM,39.0,37.9,96,30.24,10.0,Calm,Calm,-,N/A,,Clear,0,2012-12-05 04:53:00